Regional Weather Roundup
Issued by NWS Upton, NY

Current Version | Previous Version | Graphics & Text | Print | Product List | Glossary Off
Versions: 1 2 3 4 5 6 7 8 9 10 11 12 13 14 15 16 17 18 19 20 21 22 23 24 25 26 27 28 29 30 31 32 33 34 35 36 37 38 39 40 41 42 43 44 45 46 47 48 49 50

710
ASUS41 KOKX 240405
RWROKX

Regional Weather Roundup
National Weather Service New York NY
1200 AM EDT TUE APR 24 2018

Note: "FAIR" indicates few or no clouds below 12,000 feet with no
significant weather and/or obstructions to visibility.

NYZ071-072-176-178-NJZ106-104-240500-
New York City Metro Area

CITY           SKY/WX    TMP DP  RH WIND       PRES   REMARKS
Central Park   FAIR      51  34  52 CALM      30.45F
Bronx Bot Gard   N/A     46  37  71 SE3       30.44
Bronx Lehman C   N/A     50  39  66 S3          N/A
LaGuardia Arpt MOCLDY    50  41  71 S6        30.43F
Queens College   N/A     48  43  81 S7          N/A
Kennedy Intl   MOCLDY    46  43  89 SE3       30.44F
Breezy Point     N/A     46 N/A N/A SE3         N/A
Brooklyn Coll    N/A     48  43  81 S3          N/A
Staten Island    N/A     48  39  71 S3          N/A
Newark/Liberty MOCLDY    51  42  71 CALM      30.43F
Teterboro      FAIR      49  39  68 CALM      30.42F
$$

NYZ177-179-078>081-240500-
Long Island New York

CITY           SKY/WX    TMP DP  RH WIND       PRES   REMARKS
Jones Beach      N/A     46 N/A N/A S2          N/A
Wantagh          N/A     45  41  87 E2          N/A
Hempstead        N/A     46  43  87 SE1       30.46
Matinecock Pt    N/A     46 N/A N/A CALM        N/A
Farmingdale    FAIR      46  40  79 CALM      30.45S
MacArthur/ISP  MOCLDY    43  38  82 SE3       30.45S
Stony Brook      N/A     45  39  81 S3          N/A
Shirley        FAIR      39  38  96 CALM      30.46S
Mt Sinai Harb    N/A    N/A N/A N/A CALM        N/A
Westhampton    FAIR      31  25  78 CALM      30.47S
East Hampton   FAIR      33  31  92 CALM      30.45F
Southold         N/A     43  39  87 S3          N/A
Montauk          N/A     46  42  86 VRB3      30.47S
$$

NYZ052-065-067-240500-
Hudson Valley

CITY           SKY/WX    TMP DP  RH WIND       PRES   REMARKS
White Plains   FAIR      42  35  76 CALM      30.42F
Larchmont Harb   N/A     46 N/A N/A E5          N/A
Croton On Huds   N/A     46 N/A N/A MISG        N/A
Somers           N/A     45  34  65 S3          N/A
Brewster         N/A     43  32  65 S1          N/A
Newburgh       CLEAR     46  30  53 CALM      30.42S
Montgomery     FAIR      44  32  62 CALM      30.40S
Otisville        N/A     41  32  70 S1          N/A
Warwick          N/A     48  34  57 NW3         N/A
Suffern          N/A     46  34  61 S1          N/A
Poughkeepsie   FAIR      45  31  58 CALM      30.41R
Albany         MOCLDY    55  23  28 S14G24    30.36R
$$

NJZ001-105-106-008-010-013-015-019>022-104-240500-
New Jersey

CITY           SKY/WX    TMP DP  RH WIND       PRES   REMARKS
Newark/Liberty MOCLDY    51  42  71 CALM      30.43F
Teterboro      FAIR      49  39  68 CALM      30.42F
Caldwell       FAIR      45  37  73 CALM      30.43F
Somerville     FAIR      43  36  76 CALM      30.40F
Linden         FAIR      48  43  83 CALM      30.44S
Perth Amboy      N/A     50 N/A N/A S3          N/A
Sussex         FAIR      43  33  68 CALM      30.41F
Andover          N/A     45  36  70 CALM      30.40F
Trenton        FAIR      48  30  49 S5        30.41S
Millville      FAIR      41  35  79 CALM      30.41F
Atlantic City  FAIR      43  38  82 CALM      30.42F
Wrightstown    NOT AVBL
Toms River     FAIR      35  29  78 CALM      30.44S
Belmar         FAIR      45  42  89 CALM      30.43
$$

PAZ047>061-062-071-240500-
Eastern Pennsylvania

CITY           SKY/WX    TMP DP  RH WIND       PRES   REMARKS
Philadelphia   MOCLDY    50  28  42 SE3       30.42S
Allentown      FAIR      55  22  27 S5        30.39S
Scranton       FAIR      54  29  38 SE8       30.36S
$$

CTZ002-004>006-009-010-012-RIZ004-006-007-MAZ004-011-015-240500-
Southern New England

 In CT

CITY           SKY/WX    TMP DP  RH WIND       PRES   REMARKS
Bradley Intl   MOCLDY    46  26  45 S8        30.43R
Hartford       FAIR      46  32  58 S5        30.44S
Danbury        FAIR      40  31  70 CALM      30.44S
Wtrbury/Oxford FAIR      43  33  68 SW3       30.44S
Norwalk Harbor   N/A     45 N/A N/A SW1         N/A
Bridgeport     FAIR      48  40  73 SW5       30.45S
Meriden        FAIR      40  32  73 S3        30.45R
New Haven      FAIR      41  36  82 CALM      30.45S
Chester        FAIR      43  36  75 S5        30.45R
Groton         FAIR      42  41  96 SE3       30.46S
Willimantic    FAIR      40  29  64 CALM      30.45F

 In RI

CITY           SKY/WX    TMP DP  RH WIND       PRES   REMARKS
Providence     FAIR      43  32  65 S3        30.46S
Block Island   FAIR      44  42  93 S9        30.47S
Westerly       FAIR      38  36  92 CALM      30.47S

In MA

CITY           SKY/WX    TMP DP  RH WIND       PRES   REMARKS
Boston         FAIR      46  21  37 SW13      30.44S
Worcester      FAIR      44  20  38 SW13      30.41F
Westfield      FAIR      46  23  40 S6        30.42R
Provincetown   FAIR      42  37  82 S10       30.46F
Nantucket      FAIR      38  38 100 S3        30.47F
$$

ANZ330-335-338-340-345-350-353-355-240500-
Coastal Marine Observations


STATION/POSITION TIME  SKY/WX   TEMP    WIND        PRES    VSBY  WAVE
                                AIR SEA DIR/SP/G                  HT/PER
                 (UTC)          (F)     (DEG/KT/KT) (MB)    (MI)  (FT/S)
NY Harb Entrance 0350            47 46  170/  6/  8 1030.6          1/11
20 S Fire Island 0350            47 45  150/  6/  8 1031.0          1/ 8
23 SSW Montauk P 0350            46 44  180/  6/  8 1031.8          1/ 9
15 E Barnegat Li 0330               46                N/A           1/14
Hudson Canyon    0350            49 47  110/  6/  6 1030.8          1/13
Kings Point      0336            47 48  200/  5/  6 1031.7
Execution Rocks  NOT AVBL
Western LI Sound NOT AVBL
Central LI Sound 0330            45     190/  4/  4   N/A           0
Robbins Reef     0348            49     170/  6/  6 1031.1
$$


>>>>>>>>>>>>>>>>>>>>>>>>>>>> KEY <<<<<<<<<<<<<<<<<<<<<<<<<<<
>                                                          <
>     SKY/WX - Sky Condition/Present Weather               <
>     TMP    - Temperature in Fahrenheit                   <
>     DP     - Dew Point in Fahrenheit                     <
>     RH     - Relative Humidity in Percent                <
>     WIND   - Direction (from) and Speed in MPH           <
>     PRES   - Mean Sea Level Pressure (inches of Hg)      <
>     WCI    - Wind Chill Index                            <
>     VSB    - Visibility in Miles                         <
>     HX     - Heat Index                                  <
>     TC     - Temperature in Celsius                      <
>     VRB    - Varibale Wind Direction                     <
>                                                          <
>>>>>>>>>>>>>>>>>>>>>>>>>>>> KEY <<<<<<<<<<<<<<<<<<<<<<<<<<<




USA.gov is the U.S. government's official web portal to all federal, state and local government web resources and services.